User: anonymous   Login
Location: Invercargill
(46.4000°S, 168.3500°E)
Time: 12:34:06
(UTC+13:00)
Language:

Cosmos 2333 Rocket - Orbit

View from above orbital plane
View from above orbital plane
View from above satellite
View from above satellite

Ground track
Ground track

The orbit data is extracted from the following two-line orbital elements,

1 24298U 96051B   19290.05026517  .00000087  00000-0  73435-4 0  9994
2 24298  70.8318  65.8132 0015119 344.7086  15.3575 14.12438144192109
Epoch (UTC): 17 October 2019 01:12:22
Eccentricity: 0.0015119
inclination: 70.8318°
perigee height: 840 km
apogee height: 862 km
right ascension of ascending node: 65.8132°
argument of perigee: 344.7086°
revolutions per day: 14.12438144
mean anomaly at epoch: 15.3575°
orbit number at epoch: 19210

The dashed part of the orbit path shows where the satellite is in the earth's shadow,  

DLR